This is the latest recevied weather packets stored in our database for station/object KC3UTO. If no packets are shown the sender has not sent any weather packets the latest 10 day(s).
| Time | Temp. | Humidity | Pressure | Rain* | Wind** | Luminosity | Snow |
|---|---|---|---|---|---|---|---|
| 1777728018 | 10.56° C | 60% | 1012.7 hPa | 0 mm | - | 396 W/m² | - |
| 1777727715 | 10° C | 59% | 1012.7 hPa | 0 mm | - | 362 W/m² | - |
| 1777727411 | 10° C | 60% | 1012.7 hPa | 0 mm | - | 366 W/m² | - |
| 1777727109 | 10.56° C | 61% | 1012.7 hPa | 0 mm | - | 499 W/m² | - |
| 1777726807 | 10° C | 62% | 1012.6 hPa | 0 mm | - | 502 W/m² | - |
| 1777726503 | 9.44° C | 64% | 1012.7 hPa | 0 mm | - | 204 W/m² | - |
| 1777726200 | 9.44° C | 64% | 1012.8 hPa | 0 mm | - | 178 W/m² | - |
| 1777725897 | 8.89° C | 65% | 1012.4 hPa | 0 mm | - | 465 W/m² | - |
| 1777725594 | 8.89° C | 67% | 1013 hPa | 0 mm | - | 142 W/m² | - |
| 1777725291 | 8.89° C | 67% | 1012.7 hPa | 0 mm | - | 174 W/m² | - |
| 1777724988 | 8.89° C | 68% | 1012.7 hPa | 0 mm | - | 202 W/m² | - |
| 1777724684 | 8.33° C | 69% | 1012.7 hPa | 0 mm | - | 187 W/m² | - |
| 1777724383 | 8.33° C | 72% | 1012.5 hPa | 0 mm | - | 157 W/m² | - |
| 1777724080 | 8.33° C | 73% | 1012.6 hPa | 0 mm | - | 161 W/m² | - |
| 1777723777 | 8.33° C | 73% | 1012.5 hPa | 0 mm | - | 179 W/m² | - |
| 1777723473 | 8.33° C | 73% | 1012.4 hPa | 0 mm | - | 146 W/m² | - |
| 1777723171 | 8.33° C | 73% | 1012.5 hPa | 0 mm | - | 146 W/m² | - |
| 1777722868 | 8.33° C | 74% | 1012.4 hPa | 0 mm | - | 125 W/m² | - |
| 1777722564 | 8.33° C | 75% | 1012.2 hPa | 0 mm | - | 103 W/m² | - |
| 1777722261 | 8.33° C | 75% | 1012.2 hPa | 0 mm | - | 91 W/m² | - |
| 1777721958 | 8.33° C | 75% | 1012.1 hPa | 0 mm | - | 98 W/m² | - |
| 1777721655 | 8.33° C | 77% | 1012.2 hPa | 0 mm | - | 82 W/m² | - |
| 1777721354 | 8.33° C | 78% | 1012 hPa | 0 mm | - | 70 W/m² | - |
| 1777721051 | 8.33° C | 80% | 1012.3 hPa | 0 mm | - | 65 W/m² | - |
| 1777720748 | 8.89° C | 80% | 1012.2 hPa | 0 mm | - | 55 W/m² | - |
* Rain latest hour (hover to see other rain measurements)
** Current wind speed in m/s (hover to see current wind gust speed)